Location: �clusier
(49.9361°N, 2.7869°E)
Time: 08:20:39
(UTC+00:00)

ATLAS CENTAUR R/B - Pass Details

Date: 24 October 2021
Orbit: 452 x 688 km, 64.7° (Epoch: 06 December)

Event Time Altitude Azimuth Distance (km) Brightness Sun altitude
Exits shadow 03:53:54 26° 356° (N) 1,161 3.0 -24.9°
Drops below altitude 10° 03:56:38 10° 28° (NNE) 1,964 4.6 -24.5°
Sets 03:59:13 0° 39° (NE) 2,916 5.7 -24.1°
